#timestamp,LO_Frequency,Hit,StdDev 
1545969615.0,286046999.0,N
1545969635.5,286046996.8,N
1545969655.3,286046996.7,N
1545969675.1,286046999.2,N
1545969695.9,286046999.1,N
1545969715.7,286046996.5,N
1545969735.5,286046996.7,N
1545969755.4,286046995.4,Y
1545969775.2,286046999.0,P
1545969795.1,286047000.7,N
1545969796.0,286047000.7,N
1545969815.8,286046998.2,N
1545969835.6,286047001.1,N
1545969855.5,286047001.2,N
1545969875.3,286047001.2,N
1545969895.1,286047001.1,N
1545969915.9,286047000.8,N
1545969935.7,286046998.4,N
1545969955.6,286046998.5,N
1545969975.4,286047001.0,N
1545969995.2,286046998.6,N
1545970015.1,286046998.5,N
1545970016.0,286046998.5,N
1545970035.8,286046998.6,N
1545970055.7,286047001.1,N
1545970075.5,286047000.8,N
1545970095.3,286047001.2,N
1545970115.2,286046998.3,N
1545970135.0,286046998.8,N
1545970135.9,286046998.8,N
1545970155.8,286046999.0,N
1545970175.6,286046998.9,N
1545970195.4,286046998.5,N
1545970215.3,286047000.7,N
1545970235.1,286047000.7,N
1545970255.8,286046998.1,N
1545970275.7,286047001.2,N
1545970295.5,286047001.2,N
1545970315.4,286046998.3,N
1545970335.2,286046999.3,N
1545970355.1,286047001.0,N
1545970356.0,286047001.0,N
1545970375.8,286046998.1,N
1545970395.6,286047000.8,N
1545970415.5,286047000.1,N
1545970435.3,286047000.8,N
1545970455.2,286047000.8,N
1545970475.9,286047000.9,N
1545970495.7,286047002.2,N
1545970515.6,286047000.0,N
1545970535.6,286046999.9,N
1545970555.4,286047000.7,N
1545970575.3,286046999.5,N
1545970595.1,286047000.8,N
1545970615.5,286046998.3,N
1545970635.4,286046998.2,N
1545970655.2,286047002.8,N
1545970675.1,286047002.6,N
1545970676.0,286047002.6,N
1545970695.8,286047002.3,N
1545970715.6,286047002.1,N
1545970735.5,286046999.8,N
1545970755.3,286047002.5,N
1545970775.1,286047002.2,N
1545970795.9,286047002.2,N
1545970815.7,286047001.1,N
1545970835.6,286046998.6,N
1545970855.4,286047000.9,N
1545970875.2,286046998.6,N
1545970895.1,286046998.2,N
1545970896.0,286046998.2,N
1545970915.8,286046998.1,N
1545970935.7,286046998.7,N
1545970955.5,286046998.1,N
1545970975.3,286046999.7,N
1545970995.2,286047002.8,N
1545971015.0,286046999.7,N
1545971015.9,286046999.7,N
1545971035.8,286047002.6,N
1545971055.6,286047001.8,N
1545971075.4,286047003.8,N
1545971095.3,286047003.3,N
1545971115.1,286047003.9,N
1545971135.8,286047003.9,N
1545971155.7,286047001.4,N
1545971175.5,286047001.5,N
1545971195.4,286047004.0,N
1545971215.2,286047002.2,N
1545971235.0,286047004.2,N
1545971235.9,286047004.2,N
1545971255.8,286047001.9,N
1545971275.6,286047001.9,N
1545971295.4,286047002.7,N
1545971315.3,286047001.9,N
1545971335.1,286047002.4,N
1545971355.9,286047000.3,N
1545971375.7,286047002.8,N
1545971395.5,286047002.6,N
1545971415.4,286047000.5,N
1545971435.2,286047001.1,N
1545971455.0,286047000.8,N
1545971455.9,286047000.8,N
1545971475.8,286047000.0,N
1545971495.6,286047000.0,N
1545971515.5,286047002.5,N
1545971535.3,286047002.3,N
1545971555.1,286046999.8,N
1545971575.9,286047000.0,N
1545971595.7,286046999.7,N
1545971615.6,286046999.7,N
1545971635.4,286047000.4,N
1545971655.3,286047000.7,N
1545971675.1,286046998.3,N
1545971676.0,286046998.3,N
1545971695.8,286046996.9,N
1545971715.7,286046996.8,N
1545971735.5,286046999.3,N
1545971755.3,286046999.0,N
1545971775.2,286046999.0,N
1545971795.0,286047001.2,N
1545971795.9,286047001.2,N
1545971815.8,286047001.2,N
1545971835.6,286047000.4,N
1545971855.4,286047000.4,N
1545971875.3,286047000.5,N
1545971895.1,286047001.0,N
1545971915.8,286047000.9,N
1545971935.7,286046998.6,N
1545971955.5,286047000.8,N
1545971975.4,286046998.5,N
1545971995.2,286047001.0,N
1545972015.0,286046998.2,N
1545972015.9,286046998.2,N
1545972035.8,286046996.8,N
1545972055.6,286046997.0,N
1545972075.5,286046995.0,Y
1545972095.3,286046995.0,P
1545972115.1,286046995.3,N
1545972135.9,286046995.2,N
1545972155.7,286046993.9,Y
1545972175.6,286046998.7,P
1545972195.4,286047002.4,N
1545972215.2,286047002.6,N
1545972235.1,286047002.7,N
1545972236.0,286047002.7,N
1545972255.8,286047002.3,N
1545972275.6,286047000.8,N
1545972295.5,286047002.5,N
1545972315.3,286047002.6,N
1545972335.2,286047000.5,N
1545972355.9,286046999.3,N
1545972375.7,286047001.1,N
1545972395.6,286047000.7,N
1545972415.4,286047000.3,N
1545972435.2,286047000.3,N
1545972455.1,286046999.8,N
1545972456.0,286046999.8,N
1545972475.8,286046998.2,N
1545972495.7,286047001.0,N
1545972515.5,286047000.6,N
1545972535.3,286046998.4,N
1545972555.2,286046998.4,N
1545972575.0,286046999.2,N
1545972575.9,286046999.2,N
1545972595.8,286046998.6,N
1545972615.6,286046998.3,N
1545972635.4,286046998.2,N
1545972655.3,286047000.8,N
1545972675.1,286046998.5,N
1545972695.8,286046999.0,N
1545972715.7,286046997.3,N
1545972735.5,286046996.5,N
1545972755.3,286046999.1,N
1545972775.2,286047001.0,N
1545972795.0,286046998.4,N
1545972795.9,286046998.4,N
1545972815.8,286046998.8,N
1545972835.6,286046999.3,N
1545972855.4,286046998.6,N
1545972875.3,286047001.2,N
1545972895.1,286046999.5,N
1545972915.9,286046999.4,N
1545972935.7,286046996.9,N
1545972955.5,286046997.2,N
1545972975.4,286046997.4,N
1545972995.2,286046999.5,N
1545973015.0,286046997.0,N
1545973015.9,286046997.0,N
1545973035.8,286046996.6,N
1545973055.6,286046999.4,N
1545973075.5,286046999.6,N
1545973095.3,286046997.0,N
1545973115.1,286046996.8,N
1545973135.9,286046996.6,N
1545973155.7,286046997.0,N
1545973175.8,286046996.6,N
1545973195.6,286046996.7,N
